Time,TemperatureF,DewpointF,PressureIn,WindDirection,WindDirectionDegrees,WindSpeedMPH,WindSpeedGustMPH,Humidity,HourlyPrecipIn,Conditions,Clouds,dailyrainin,SoftwareType,DateUTC
2013-01-31 00:03:00,41.5,36.8,28.67,NW,323,7.0,7.6,83,0.00,,SKC,0.00,VWS V14.00,2013-01-31 05:03:00,
2013-01-31 00:08:00,41.4,36.3,28.67,WNW,290,13.2,13.2,82,0.00,,SKC,0.00,VWS V14.00,2013-01-31 05:08:00,
2013-01-31 00:13:00,40.6,34.3,28.67,WNW,287,9.1,15.4,78,0.00,,SKC,0.00,VWS V14.00,2013-01-31 05:13:00,
2013-01-31 00:18:00,39.9,33.3,28.70,WNW,301,4.8,15.4,77,0.00,,SKC,0.00,VWS V14.00,2013-01-31 05:18:00,
2013-01-31 00:23:00,39.2,32.6,28.70,West,274,9.1,9.1,77,0.00,,SKC,0.00,VWS V14.00,2013-01-31 05:23:00,
2013-01-31 00:28:00,38.8,32.6,28.70,SW,234,0.0,8.3,78,0.00,,SKC,0.00,VWS V14.00,2013-01-31 05:28:00,
2013-01-31 00:33:00,38.7,32.7,28.70,WSW,246,4.8,5.8,79,0.00,,SKC,0.00,VWS V14.00,2013-01-31 05:33:00,
2013-01-31 00:38:00,38.5,32.5,28.70,SW,229,3.2,7.6,79,0.00,,SKC,0.00,VWS V14.00,2013-01-31 05:38:00,
2013-01-31 00:43:00,38.5,32.9,28.70,West,279,3.8,4.9,80,0.00,,SKC,0.00,VWS V14.00,2013-01-31 05:43:00,
2013-01-31 00:48:00,38.5,32.9,28.70,West,271,2.7,5.4,80,0.00,,SKC,0.00,VWS V14.00,2013-01-31 05:48:00,
2013-01-31 00:53:00,38.5,33.2,28.70,WNW,286,3.2,3.6,81,0.00,,SKC,0.00,VWS V14.00,2013-01-31 05:53:00,
2013-01-31 00:58:00,38.5,33.2,28.70,WSW,240,3.8,6.3,81,0.00,,SKC,0.00,VWS V14.00,2013-01-31 05:58:00,
2013-01-31 01:03:00,38.3,33.0,28.73,NW,306,6.4,10.5,81,0.00,,SKC,0.00,VWS V14.00,2013-01-31 06:03:00,
2013-01-31 01:08:00,37.6,31.7,28.73,North,353,9.1,12.3,79,0.00,,SKC,0.00,VWS V14.00,2013-01-31 06:08:00,
2013-01-31 01:13:00,37.0,31.1,28.73,NW,314,4.3,4.9,79,0.00,,SKC,0.00,VWS V14.00,2013-01-31 06:13:00,
2013-01-31 01:18:00,36.9,31.3,28.76,WSW,248,4.3,4.9,80,0.00,,SKC,0.00,VWS V14.00,2013-01-31 06:18:00,
2013-01-31 01:24:00,36.9,31.3,28.76,SW,227,3.8,4.0,80,0.00,,SKC,0.00,VWS V14.00,2013-01-31 06:24:00,
2013-01-31 01:29:00,36.9,31.3,28.76,NW,305,3.8,8.1,80,0.00,,SKC,0.00,VWS V14.00,2013-01-31 06:29:00,
2013-01-31 01:34:00,36.7,31.1,28.76,NW,306,3.8,5.4,80,0.00,,SKC,0.00,VWS V14.00,2013-01-31 06:34:00,
2013-01-31 01:39:00,36.7,31.1,28.76,SW,234,5.9,7.2,80,0.00,,SKC,0.00,VWS V14.00,2013-01-31 06:39:00,
2013-01-31 01:44:00,36.5,30.9,28.76,West,263,4.3,8.1,80,0.00,,SKC,0.00,VWS V14.00,2013-01-31 06:44:00,
2013-01-31 01:49:00,36.3,30.8,28.76,SW,216,4.8,8.1,80,0.00,,SKC,0.00,VWS V14.00,2013-01-31 06:49:00,
2013-01-31 01:54:00,36.3,30.8,28.76,WSW,252,5.9,7.6,80,0.00,,SKC,0.00,VWS V14.00,2013-01-31 06:54:00,
2013-01-31 01:59:00,36.1,30.6,28.76,NNE,27,6.4,7.6,80,0.00,,SKC,0.00,VWS V14.00,2013-01-31 06:59:00,
2013-01-31 02:04:00,36.1,30.3,28.79,NNW,327,7.5,8.1,79,0.00,,SKC,0.00,VWS V14.00,2013-01-31 07:04:00,
2013-01-31 02:09:00,36.1,30.0,28.79,WSW,243,3.8,10.5,78,0.00,,SKC,0.00,VWS V14.00,2013-01-31 07:09:00,
2013-01-31 02:14:00,36.0,29.8,28.79,NW,313,0.0,7.6,78,0.00,,SKC,0.00,VWS V14.00,2013-01-31 07:14:00,
2013-01-31 02:19:00,36.0,29.8,28.79,WNW,300,3.2,8.1,78,0.00,,SKC,0.00,VWS V14.00,2013-01-31 07:19:00,
2013-01-31 02:24:00,35.8,29.3,28.79,NW,311,3.2,8.7,77,0.00,,SKC,0.00,VWS V14.00,2013-01-31 07:24:00,
2013-01-31 02:29:00,35.6,28.8,28.79,WNW,292,4.3,8.7,76,0.00,,SKC,0.00,VWS V14.00,2013-01-31 07:29:00,
2013-01-31 02:34:00,35.4,28.6,28.79,SW,234,3.8,5.4,76,0.00,,SKC,0.00,VWS V14.00,2013-01-31 07:34:00,
2013-01-31 02:39:00,35.2,28.5,28.79,WSW,250,4.8,6.3,76,0.00,,SKC,0.00,VWS V14.00,2013-01-31 07:39:00,
2013-01-31 02:44:00,35.1,28.6,28.79,WSW,244,0.0,3.1,77,0.00,,SKC,0.00,VWS V14.00,2013-01-31 07:44:00,
2013-01-31 02:49:00,35.1,28.6,28.82,SW,226,3.8,5.4,77,0.00,,SKC,0.00,VWS V14.00,2013-01-31 07:49:00,
2013-01-31 02:54:00,35.1,28.6,28.82,WNW,302,7.5,7.6,77,0.00,,SKC,0.00,VWS V14.00,2013-01-31 07:54:00,
2013-01-31 02:59:00,34.9,28.4,28.82,West,275,7.0,7.6,77,0.00,,SKC,0.00,VWS V14.00,2013-01-31 07:59:00,
2013-01-31 03:04:00,34.7,28.2,28.82,NNW,338,3.2,8.1,77,0.00,,SKC,0.00,VWS V14.00,2013-01-31 08:04:00,
2013-01-31 03:09:00,34.5,27.8,28.82,West,259,5.9,11.0,76,0.00,,SKC,0.00,VWS V14.00,2013-01-31 08:09:00,
2013-01-31 03:14:00,34.5,27.8,28.82,NW,308,6.4,7.6,76,0.00,,SKC,0.00,VWS V14.00,2013-01-31 08:14:00,
2013-01-31 03:19:00,34.3,27.6,28.82,SW,231,4.3,7.6,76,0.00,,SKC,0.00,VWS V14.00,2013-01-31 08:19:00,
2013-01-31 03:24:00,34.2,27.1,28.82,SW,219,3.2,8.1,75,0.00,,SKC,0.00,VWS V14.00,2013-01-31 08:24:00,
2013-01-31 03:29:00,34.0,27.2,28.82,WSW,240,4.8,8.1,76,0.00,,SKC,0.00,VWS V14.00,2013-01-31 08:29:00,
2013-01-31 03:34:00,34.0,26.9,28.85,NW,306,3.2,7.6,75,0.00,,SKC,0.00,VWS V14.00,2013-01-31 08:34:00,
2013-01-31 03:39:00,33.8,26.7,28.85,WSW,250,3.8,7.6,75,0.00,,SKC,0.00,VWS V14.00,2013-01-31 08:39:00,
2013-01-31 03:44:00,33.8,26.7,28.85,NNW,331,0.0,7.2,75,0.00,,SKC,0.00,VWS V14.00,2013-01-31 08:44:00,
2013-01-31 03:49:00,33.6,26.9,28.85,West,262,3.2,7.2,76,0.00,,SKC,0.00,VWS V14.00,2013-01-31 08:49:00,
2013-01-31 03:54:00,33.6,26.9,28.85,WNW,293,0.0,6.3,76,0.00,,SKC,0.00,VWS V14.00,2013-01-31 08:54:00,
2013-01-31 03:59:00,33.6,26.9,28.85,SW,215,0.0,6.3,76,0.00,,SKC,0.00,VWS V14.00,2013-01-31 08:59:00,
2013-01-31 04:04:00,33.6,26.9,28.85,SSW,213,0.0,2.2,76,0.00,,SKC,0.00,VWS V14.00,2013-01-31 09:04:00,
2013-01-31 04:09:00,33.6,27.2,28.85,SSW,213,0.0,2.2,77,0.00,,SKC,0.00,VWS V14.00,2013-01-31 09:09:00,
2013-01-31 04:14:00,33.8,27.0,28.85,SSW,213,0.0,0.0,76,0.00,,SKC,0.00,VWS V14.00,2013-01-31 09:14:00,
2013-01-31 04:19:00,33.6,27.2,28.85,SW,233,0.0,4.5,77,0.00,,SKC,0.00,VWS V14.00,2013-01-31 09:19:00,
2013-01-31 04:24:00,33.8,27.4,28.85,NW,311,0.0,0.0,77,0.00,,SKC,0.00,VWS V14.00,2013-01-31 09:24:00,
2013-01-31 04:29:00,33.6,27.2,28.85,NW,311,0.0,0.0,77,0.00,,SKC,0.00,VWS V14.00,2013-01-31 09:29:00,
2013-01-31 04:34:00,33.8,27.4,28.85,NW,324,0.0,0.0,77,0.00,,SKC,0.00,VWS V14.00,2013-01-31 09:34:00,
2013-01-31 04:39:00,33.8,27.4,28.85,SW,230,3.2,6.3,77,0.00,,SKC,0.00,VWS V14.00,2013-01-31 09:39:00,
2013-01-31 04:44:00,33.8,27.4,28.85,SW,236,0.0,6.3,77,0.00,,SKC,0.00,VWS V14.00,2013-01-31 09:44:00,
2013-01-31 04:49:00,33.8,27.4,28.85,SW,222,0.0,6.3,77,0.00,,SKC,0.00,VWS V14.00,2013-01-31 09:49:00,
2013-01-31 04:54:00,33.8,27.4,28.85,SSW,195,0.0,5.4,77,0.00,,SKC,0.00,VWS V14.00,2013-01-31 09:54:00,
2013-01-31 04:59:00,33.8,27.4,28.85,WSW,245,0.0,8.1,77,0.00,,SKC,0.00,VWS V14.00,2013-01-31 09:59:00,
2013-01-31 05:04:00,33.6,27.2,28.85,NW,316,3.8,5.4,77,0.00,,SKC,0.00,VWS V14.00,2013-01-31 10:04:00,
2013-01-31 05:09:00,33.6,27.2,28.85,WSW,248,2.7,5.4,77,0.00,,SKC,0.00,VWS V14.00,2013-01-31 10:09:00,
2013-01-31 05:14:00,33.6,27.2,28.85,SW,226,3.2,4.9,77,0.00,,SKC,0.00,VWS V14.00,2013-01-31 10:14:00,
2013-01-31 05:19:00,33.4,27.0,28.85,WNW,284,0.0,4.9,77,0.00,,SKC,0.00,VWS V14.00,2013-01-31 10:19:00,
2013-01-31 05:24:00,33.4,27.0,28.85,NNW,330,8.1,8.1,77,0.00,,SKC,0.00,VWS V14.00,2013-01-31 10:24:00,
2013-01-31 05:29:00,33.3,26.8,28.85,SW,227,4.8,8.1,77,0.00,,SKC,0.00,VWS V14.00,2013-01-31 10:29:00,
2013-01-31 05:34:00,33.3,26.5,28.88,WSW,249,0.0,4.9,76,0.00,,SKC,0.00,VWS V14.00,2013-01-31 10:34:00,
2013-01-31 05:39:00,33.3,26.5,28.88,NNW,332,3.2,4.9,76,0.00,,SKC,0.00,VWS V14.00,2013-01-31 10:39:00,
2013-01-31 05:44:00,33.3,26.2,28.88,NW,311,3.8,6.3,75,0.00,,SKC,0.00,VWS V14.00,2013-01-31 10:44:00,
2013-01-31 05:49:00,33.1,26.0,28.88,NW,305,0.0,6.3,75,0.00,,SKC,0.00,VWS V14.00,2013-01-31 10:49:00,
2013-01-31 05:54:00,33.1,25.7,28.88,SW,228,0.0,0.0,74,0.00,,SKC,0.00,VWS V14.00,2013-01-31 10:54:00,
2013-01-31 05:59:00,32.9,25.5,28.88,WNW,286,0.0,0.0,74,0.00,,SKC,0.00,VWS V14.00,2013-01-31 10:59:00,
2013-01-31 06:04:00,32.9,25.2,28.88,NW,320,0.0,0.0,73,0.00,,SKC,0.00,VWS V14.00,2013-01-31 11:04:00,
2013-01-31 06:09:00,32.9,25.2,28.88,NW,313,0.0,0.0,73,0.00,,SKC,0.00,VWS V14.00,2013-01-31 11:09:00,
2013-01-31 06:14:00,33.1,25.4,28.88,NNW,329,0.0,0.0,73,0.00,,SKC,0.00,VWS V14.00,2013-01-31 11:14:00,
2013-01-31 06:19:00,33.1,25.4,28.88,NW,320,0.0,0.0,73,0.00,,SKC,0.00,VWS V14.00,2013-01-31 11:19:00,
2013-01-31 06:24:00,33.1,25.4,28.88,SW,222,0.0,0.0,73,0.00,,SKC,0.00,VWS V14.00,2013-01-31 11:24:00,
2013-01-31 06:29:00,33.1,25.4,28.88,NW,321,0.0,0.0,73,0.00,,SKC,0.00,VWS V14.00,2013-01-31 11:29:00,
2013-01-31 06:34:00,33.1,25.4,28.88,SW,217,0.0,0.0,73,0.00,,SKC,0.00,VWS V14.00,2013-01-31 11:34:00,
2013-01-31 06:39:00,33.1,25.0,28.88,SW,234,0.0,0.0,72,0.00,,SKC,0.00,VWS V14.00,2013-01-31 11:39:00,
2013-01-31 06:44:00,33.1,25.0,28.88,SW,229,0.0,0.0,72,0.00,,SKC,0.00,VWS V14.00,2013-01-31 11:44:00,
2013-01-31 06:49:00,33.1,25.4,28.88,SW,234,0.0,0.0,73,0.00,,SKC,0.00,VWS V14.00,2013-01-31 11:49:00,
2013-01-31 06:54:00,33.1,25.4,28.88,SW,219,0.0,0.0,73,0.00,,SKC,0.00,VWS V14.00,2013-01-31 11:54:00,
2013-01-31 06:59:00,32.9,25.2,28.88,SW,227,0.0,0.0,73,0.00,,SKC,0.00,VWS V14.00,2013-01-31 11:59:00,
2013-01-31 07:04:00,32.9,25.5,28.88,SSW,210,0.0,0.0,74,0.00,,SKC,0.00,VWS V14.00,2013-01-31 12:04:00,
2013-01-31 07:09:00,32.9,25.5,28.88,SW,224,0.0,0.0,74,0.00,,SKC,0.00,VWS V14.00,2013-01-31 12:09:00,
2013-01-31 07:14:00,32.9,25.5,28.88,SW,235,0.0,0.0,74,0.00,,SKC,0.00,VWS V14.00,2013-01-31 12:14:00,
2013-01-31 07:19:00,32.9,25.5,28.88,SW,214,0.0,0.0,74,0.00,,SKC,0.00,VWS V14.00,2013-01-31 12:19:00,
2013-01-31 07:24:00,33.1,26.0,28.88,SW,214,0.0,0.0,75,0.00,,SKC,0.00,VWS V14.00,2013-01-31 12:24:00,
2013-01-31 07:29:00,33.1,26.0,28.88,SW,236,0.0,0.0,75,0.00,,SKC,0.00,VWS V14.00,2013-01-31 12:29:00,
2013-01-31 07:34:00,33.1,26.0,28.91,WSW,252,0.0,0.0,75,0.00,,SKC,0.00,VWS V14.00,2013-01-31 12:34:00,
2013-01-31 07:39:00,33.1,26.0,28.91,SSW,204,0.0,0.0,75,0.00,,SKC,0.00,VWS V14.00,2013-01-31 12:39:00,
2013-01-31 07:44:00,33.1,26.0,28.91,SW,227,0.0,0.0,75,0.00,,SKC,0.00,VWS V14.00,2013-01-31 12:44:00,
2013-01-31 07:49:00,33.1,26.0,28.91,South,174,0.0,4.0,75,0.00,,SKC,0.00,VWS V14.00,2013-01-31 12:49:00,
2013-01-31 07:54:00,33.3,26.2,28.91,WSW,237,0.0,4.0,75,0.00,,SKC,0.00,VWS V14.00,2013-01-31 12:54:00,
2013-01-31 07:59:00,33.3,26.2,28.91,SW,214,0.0,4.0,75,0.00,,SKC,0.00,VWS V14.00,2013-01-31 12:59:00,
2013-01-31 08:04:00,33.3,26.2,28.91,SSW,207,4.8,4.8,75,0.00,,SKC,0.00,VWS V14.00,2013-01-31 13:04:00,
2013-01-31 08:09:00,33.3,26.5,28.91,WSW,249,0.0,5.4,76,0.00,,SKC,0.00,VWS V14.00,2013-01-31 13:09:00,
2013-01-31 08:14:00,33.3,26.5,28.91,WSW,242,3.2,4.0,76,0.00,,SKC,0.00,VWS V14.00,2013-01-31 13:14:00,
2013-01-31 08:20:00,33.4,26.7,28.94,SSW,213,4.3,5.8,76,0.00,,SKC,0.00,VWS V14.00,2013-01-31 13:20:00,
2013-01-31 08:25:00,33.4,26.7,28.94,SW,226,2.7,4.0,76,0.00,,SKC,0.00,VWS V14.00,2013-01-31 13:25:00,
2013-01-31 08:30:00,33.4,26.7,28.94,WSW,241,4.3,5.8,76,0.00,,SKC,0.00,VWS V14.00,2013-01-31 13:30:00,
2013-01-31 08:35:00,33.6,26.9,28.94,WSW,248,3.2,6.3,76,0.00,,SKC,0.00,VWS V14.00,2013-01-31 13:35:00,
2013-01-31 08:40:00,33.6,26.9,28.94,SW,236,5.9,6.3,76,0.00,,SKC,0.00,VWS V14.00,2013-01-31 13:40:00,
2013-01-31 08:45:00,33.6,26.9,28.94,WSW,240,0.0,6.3,76,0.00,,SKC,0.00,VWS V14.00,2013-01-31 13:45:00,
2013-01-31 08:50:00,33.6,26.9,28.94,SW,236,0.0,6.3,76,0.00,,SKC,0.00,VWS V14.00,2013-01-31 13:50:00,
2013-01-31 08:55:00,33.6,26.9,28.94,WNW,297,4.8,4.8,76,0.00,,SKC,0.00,VWS V14.00,2013-01-31 13:55:00,
2013-01-31 09:00:00,33.8,26.7,28.94,NW,307,7.0,11.0,75,0.00,,SKC,0.00,VWS V14.00,2013-01-31 14:00:00,
2013-01-31 09:05:00,33.8,26.7,28.97,SW,228,3.2,4.0,75,0.00,,SKC,0.00,VWS V14.00,2013-01-31 14:05:00,
2013-01-31 09:10:00,33.8,26.4,28.97,NNW,338,7.0,7.6,74,0.00,,SKC,0.00,VWS V14.00,2013-01-31 14:10:00,
2013-01-31 09:15:00,33.6,26.2,28.97,NNW,336,7.0,7.0,74,0.00,,SKC,0.00,VWS V14.00,2013-01-31 14:15:00,
2013-01-31 09:20:00,33.8,26.1,28.97,WSW,250,4.8,6.7,73,0.00,,SKC,0.00,VWS V14.00,2013-01-31 14:20:00,
2013-01-31 09:25:00,33.8,26.1,28.97,NW,313,4.8,7.2,73,0.00,,SKC,0.00,VWS V14.00,2013-01-31 14:25:00,
2013-01-31 09:30:00,34.0,25.6,28.97,NW,316,5.9,7.2,71,0.00,,SKC,0.00,VWS V14.00,2013-01-31 14:30:00,
2013-01-31 09:35:00,34.0,25.2,28.97,SW,235,0.0,8.1,70,0.00,,SKC,0.00,VWS V14.00,2013-01-31 14:35:00,
2013-01-31 09:40:00,34.2,25.8,28.97,WNW,288,3.2,8.1,71,0.00,,SKC,0.00,VWS V14.00,2013-01-31 14:40:00,
2013-01-31 09:45:00,34.2,25.4,28.97,NW,322,0.0,5.8,70,0.00,,SKC,0.00,VWS V14.00,2013-01-31 14:45:00,
2013-01-31 09:50:00,34.3,25.9,28.97,WSW,240,3.2,5.8,71,0.00,,SKC,0.00,VWS V14.00,2013-01-31 14:50:00,
2013-01-31 09:55:00,34.3,25.9,28.97,SW,221,0.0,5.4,71,0.00,,SKC,0.00,VWS V14.00,2013-01-31 14:55:00,
2013-01-31 10:00:00,34.5,26.4,28.97,SSW,211,0.0,5.4,72,0.00,,SKC,0.00,VWS V14.00,2013-01-31 15:00:00,
2013-01-31 10:05:00,34.9,26.8,28.97,NNE,27,0.0,4.9,72,0.00,,SKC,0.00,VWS V14.00,2013-01-31 15:05:00,
2013-01-31 10:10:00,34.9,26.8,28.97,SW,228,5.9,5.9,72,0.00,,SKC,0.00,VWS V14.00,2013-01-31 15:10:00,
2013-01-31 10:15:00,34.9,26.8,28.97,ESE,114,4.8,5.8,72,0.00,,SKC,0.00,VWS V14.00,2013-01-31 15:15:00,
2013-01-31 10:20:00,34.9,26.8,29.00,WSW,237,4.3,6.3,72,0.00,,SKC,0.00,VWS V14.00,2013-01-31 15:20:00,
2013-01-31 10:25:00,35.1,27.0,29.00,SW,236,3.2,5.8,72,0.00,,SKC,0.00,VWS V14.00,2013-01-31 15:25:00,
2013-01-31 10:30:00,35.1,27.0,29.00,SSW,198,2.7,6.3,72,0.00,,SKC,0.00,VWS V14.00,2013-01-31 15:30:00,
2013-01-31 10:35:00,35.2,27.1,29.00,WSW,242,7.5,7.5,72,0.00,,SKC,0.00,VWS V14.00,2013-01-31 15:35:00,
2013-01-31 10:40:00,35.6,27.5,29.00,WSW,245,6.4,6.4,72,0.00,,SKC,0.00,VWS V14.00,2013-01-31 15:40:00,
2013-01-31 10:45:00,36.0,27.8,29.00,SSW,213,6.4,6.7,72,0.00,,SKC,0.00,VWS V14.00,2013-01-31 15:45:00,
2013-01-31 10:50:00,36.1,28.0,29.00,NW,308,3.2,6.7,72,0.00,,SKC,0.00,VWS V14.00,2013-01-31 15:50:00,
2013-01-31 10:55:00,36.0,27.5,29.00,WSW,241,6.4,7.2,71,0.00,,SKC,0.00,VWS V14.00,2013-01-31 15:55:00,
2013-01-31 11:00:00,35.8,27.0,29.00,SW,231,3.2,7.2,70,0.00,,SKC,0.00,VWS V14.00,2013-01-31 16:00:00,
2013-01-31 11:05:00,35.8,27.0,29.00,WSW,258,3.2,5.8,70,0.00,,SKC,0.00,VWS V14.00,2013-01-31 16:05:00,
2013-01-31 11:10:00,35.6,25.7,29.00,WNW,302,7.5,8.1,67,0.00,,SKC,0.00,VWS V14.00,2013-01-31 16:10:00,
2013-01-31 11:15:00,35.6,25.4,29.00,SW,235,6.4,8.1,66,0.00,,SKC,0.00,VWS V14.00,2013-01-31 16:15:00,
2013-01-31 11:20:00,36.0,25.7,29.00,NNW,333,9.7,9.7,66,0.00,,SKC,0.00,VWS V14.00,2013-01-31 16:20:00,
2013-01-31 11:25:00,36.3,26.4,29.00,NNW,341,4.3,6.3,67,0.00,,SKC,0.00,VWS V14.00,2013-01-31 16:25:00,
2013-01-31 11:30:00,36.7,26.4,29.00,WSW,241,2.7,7.6,66,0.00,,SKC,0.00,VWS V14.00,2013-01-31 16:30:00,
2013-01-31 11:35:00,37.0,27.5,29.00,SW,232,3.8,7.6,68,0.00,,SKC,0.00,VWS V14.00,2013-01-31 16:35:00,
2013-01-31 11:40:00,37.4,27.8,29.00,NW,316,4.3,4.3,68,0.00,,SKC,0.00,VWS V14.00,2013-01-31 16:40:00,
2013-01-31 11:45:00,37.4,27.5,29.00,NW,311,6.4,8.3,67,0.00,,SKC,0.00,VWS V14.00,2013-01-31 16:45:00,
2013-01-31 11:50:00,37.4,26.7,29.00,West,268,5.9,8.3,65,0.00,,SKC,0.00,VWS V14.00,2013-01-31 16:50:00,
2013-01-31 11:55:00,37.6,27.3,29.00,SSW,210,7.5,8.3,66,0.00,,SKC,0.00,VWS V14.00,2013-01-31 16:55:00,
2013-01-31 12:00:00,38.1,26.6,29.00,NNW,328,5.9,5.9,63,0.00,,SKC,0.00,VWS V14.00,2013-01-31 17:00:00,
2013-01-31 12:05:00,38.5,27.8,29.00,SW,235,9.1,9.1,65,0.00,,SKC,0.00,VWS V14.00,2013-01-31 17:05:00,
2013-01-31 12:10:00,38.8,28.5,29.00,NNW,344,5.9,5.9,66,0.00,,SKC,0.00,VWS V14.00,2013-01-31 17:10:00,
2013-01-31 12:15:00,39.6,29.1,29.00,West,273,4.3,11.0,66,0.00,,SKC,0.00,VWS V14.00,2013-01-31 17:15:00,
2013-01-31 12:20:00,40.1,30.0,29.00,SW,234,2.7,3.6,67,0.00,,SKC,0.00,VWS V14.00,2013-01-31 17:20:00,
2013-01-31 12:25:00,40.5,30.4,29.00,WSW,247,4.3,8.7,67,0.00,,SKC,0.00,VWS V14.00,2013-01-31 17:25:00,
2013-01-31 12:30:00,40.1,29.7,29.00,WSW,241,3.8,7.2,66,0.00,,SKC,0.00,VWS V14.00,2013-01-31 17:30:00,
2013-01-31 12:35:00,40.3,29.5,29.00,NNW,345,6.4,7.2,65,0.00,,SKC,0.00,VWS V14.00,2013-01-31 17:35:00,
2013-01-31 12:40:00,40.5,29.6,29.00,WSW,251,4.3,5.4,65,0.00,,SKC,0.00,VWS V14.00,2013-01-31 17:40:00,
2013-01-31 12:45:00,40.6,30.2,29.00,WSW,257,2.7,7.2,66,0.00,,SKC,0.00,VWS V14.00,2013-01-31 17:45:00,
2013-01-31 12:50:00,40.8,30.4,29.00,WSW,254,7.0,7.0,66,0.00,,SKC,0.00,VWS V14.00,2013-01-31 17:50:00,
2013-01-31 12:55:00,41.2,29.9,29.00,WNW,291,4.8,7.2,64,0.00,,SKC,0.00,VWS V14.00,2013-01-31 17:55:00,
2013-01-31 13:00:00,41.4,29.7,29.00,WSW,244,4.3,5.8,63,0.00,,SKC,0.00,VWS V14.00,2013-01-31 18:00:00,
2013-01-31 13:05:00,41.7,29.3,29.00,WSW,239,7.5,7.5,61,0.00,,SKC,0.00,VWS V14.00,2013-01-31 18:05:00,
2013-01-31 13:10:00,41.7,30.1,29.00,NNW,331,4.3,5.4,63,0.00,,SKC,0.00,VWS V14.00,2013-01-31 18:10:00,
2013-01-31 13:15:00,42.1,30.4,29.00,SW,236,7.0,7.6,63,0.00,,SKC,0.00,VWS V14.00,2013-01-31 18:15:00,
2013-01-31 13:20:00,41.5,29.1,29.03,WNW,291,15.3,15.3,61,0.00,,SKC,0.00,VWS V14.00,2013-01-31 18:20:00,
2013-01-31 13:25:00,41.5,29.1,29.03,WSW,246,5.9,12.8,61,0.00,,SKC,0.00,VWS V14.00,2013-01-31 18:25:00,
2013-01-31 13:30:00,41.9,29.9,29.03,SW,230,3.2,5.8,62,0.00,,SKC,0.00,VWS V14.00,2013-01-31 18:30:00,
2013-01-31 13:35:00,41.7,28.5,29.00,NW,309,9.1,10.1,59,0.00,,SKC,0.00,VWS V14.00,2013-01-31 18:35:00,
2013-01-31 13:40:00,41.7,27.6,29.00,WSW,248,3.2,4.0,57,0.00,,SKC,0.00,VWS V14.00,2013-01-31 18:40:00,
2013-01-31 13:45:00,41.9,28.6,29.00,WSW,243,3.8,8.7,59,0.00,,SKC,0.00,VWS V14.00,2013-01-31 18:45:00,
2013-01-31 13:50:00,41.5,28.3,29.00,North,8,4.3,4.3,59,0.00,,SKC,0.00,VWS V14.00,2013-01-31 18:50:00,
2013-01-31 13:55:00,41.7,28.5,29.00,WSW,239,3.8,4.9,59,0.00,,SKC,0.00,VWS V14.00,2013-01-31 18:55:00,
2013-01-31 14:00:00,42.3,29.8,29.00,SW,233,4.3,5.8,61,0.00,,SKC,0.00,VWS V14.00,2013-01-31 19:00:00,
2013-01-31 14:05:00,42.6,29.7,29.00,WSW,249,3.2,5.8,60,0.00,,SKC,0.00,VWS V14.00,2013-01-31 19:05:00,
2013-01-31 14:10:00,42.8,29.5,29.00,WSW,238,0.0,0.0,59,0.00,,SKC,0.00,VWS V14.00,2013-01-31 19:10:00,
2013-01-31 14:15:00,43.2,30.2,29.00,SW,223,3.8,5.4,60,0.00,,SKC,0.00,VWS V14.00,2013-01-31 19:15:00,
2013-01-31 14:20:00,43.5,30.6,28.97,WSW,245,3.2,5.8,60,0.00,,SKC,0.00,VWS V14.00,2013-01-31 19:20:00,
2013-01-31 14:25:00,43.7,30.7,28.97,WSW,244,3.8,6.3,60,0.00,,SKC,0.00,VWS V14.00,2013-01-31 19:25:00,
2013-01-31 14:30:00,43.3,29.6,28.97,SW,221,2.7,5.4,58,0.00,,SKC,0.00,VWS V14.00,2013-01-31 19:30:00,
2013-01-31 14:35:00,43.0,29.6,28.97,WSW,245,3.8,7.6,59,0.00,,SKC,0.00,VWS V14.00,2013-01-31 19:35:00,
2013-01-31 14:40:00,42.8,29.1,29.00,NW,305,4.3,4.9,58,0.00,,SKC,0.00,VWS V14.00,2013-01-31 19:40:00,
2013-01-31 14:45:00,43.2,29.8,29.00,WNW,289,0.0,5.8,59,0.00,,SKC,0.00,VWS V14.00,2013-01-31 19:45:00,
2013-01-31 14:50:00,43.5,30.2,29.00,South,171,5.9,8.3,59,0.00,,SKC,0.00,VWS V14.00,2013-01-31 19:50:00,
2013-01-31 14:55:00,43.3,28.3,29.00,WNW,293,4.3,11.0,55,0.00,,SKC,0.00,VWS V14.00,2013-01-31 19:55:00,
2013-01-31 15:00:00,42.8,27.8,29.00,NW,322,4.3,6.3,55,0.00,,SKC,0.00,VWS V14.00,2013-01-31 20:00:00,
2013-01-31 15:05:00,42.8,28.2,29.00,SSW,195,0.0,6.3,56,0.00,,SKC,0.00,VWS V14.00,2013-01-31 20:05:00,
2013-01-31 15:11:00,42.8,28.6,29.00,WNW,289,4.8,4.8,57,0.00,,SKC,0.00,VWS V14.00,2013-01-31 20:11:00,
2013-01-31 15:16:00,42.6,27.6,29.00,SW,216,0.0,6.3,55,0.00,,SKC,0.00,VWS V14.00,2013-01-31 20:16:00,
2013-01-31 15:21:00,42.3,27.7,29.00,NW,310,3.8,5.8,56,0.00,,SKC,0.00,VWS V14.00,2013-01-31 20:21:00,
2013-01-31 15:26:00,42.3,26.8,29.00,SW,234,4.8,8.1,54,0.00,,SKC,0.00,VWS V14.00,2013-01-31 20:26:00,
2013-01-31 15:31:00,42.1,26.6,29.00,West,261,0.0,3.1,54,0.00,,SKC,0.00,VWS V14.00,2013-01-31 20:31:00,
2013-01-31 15:36:00,42.1,27.1,29.00,SW,235,5.9,5.9,55,0.00,,SKC,0.00,VWS V14.00,2013-01-31 20:36:00,
2013-01-31 15:41:00,41.7,25.4,29.00,SSW,211,4.8,4.8,52,0.00,,SKC,0.00,VWS V14.00,2013-01-31 20:41:00,
2013-01-31 15:46:00,41.7,26.3,29.00,NW,316,0.0,4.9,54,0.00,,SKC,0.00,VWS V14.00,2013-01-31 20:46:00,
2013-01-31 15:51:00,41.5,27.0,29.00,SW,228,3.2,8.1,56,0.00,,SKC,0.00,VWS V14.00,2013-01-31 20:51:00,
2013-01-31 15:56:00,41.7,27.2,29.00,WSW,258,0.0,8.1,56,0.00,,SKC,0.00,VWS V14.00,2013-01-31 20:56:00,
2013-01-31 16:01:00,41.5,26.6,29.00,SW,231,4.8,4.9,55,0.00,,SKC,0.00,VWS V14.00,2013-01-31 21:01:00,
2013-01-31 16:06:00,41.5,26.6,28.97,WNW,293,4.3,6.3,55,0.00,,SKC,0.00,VWS V14.00,2013-01-31 21:06:00,
2013-01-31 16:11:00,41.4,26.9,28.97,NW,309,5.9,5.9,56,0.00,,SKC,0.00,VWS V14.00,2013-01-31 21:11:00,
2013-01-31 16:16:00,41.4,26.4,28.97,SW,235,0.0,5.4,55,0.00,,SKC,0.00,VWS V14.00,2013-01-31 21:16:00,
2013-01-31 16:21:00,41.4,26.4,28.97,West,280,0.0,3.6,55,0.00,,SKC,0.00,VWS V14.00,2013-01-31 21:21:00,
2013-01-31 16:26:00,41.2,26.2,28.97,West,274,2.7,5.4,55,0.00,,SKC,0.00,VWS V14.00,2013-01-31 21:26:00,
2013-01-31 16:31:00,41.0,26.1,28.97,WNW,288,0.0,0.0,55,0.00,,SKC,0.00,VWS V14.00,2013-01-31 21:31:00,
2013-01-31 16:36:00,41.0,26.5,28.97,SSW,207,3.2,5.8,56,0.00,,SKC,0.00,VWS V14.00,2013-01-31 21:36:00,
2013-01-31 16:41:00,40.8,26.4,28.97,NW,326,5.4,5.4,56,0.00,,SKC,0.00,VWS V14.00,2013-01-31 21:41:00,
2013-01-31 16:46:00,40.6,26.2,28.97,WSW,257,0.0,5.4,56,0.00,,SKC,0.00,VWS V14.00,2013-01-31 21:46:00,
2013-01-31 16:51:00,40.5,26.0,28.97,SSW,209,3.2,4.9,56,0.00,,SKC,0.00,VWS V14.00,2013-01-31 21:51:00,
2013-01-31 16:56:00,40.5,26.0,28.97,WSW,252,0.0,6.3,56,0.00,,SKC,0.00,VWS V14.00,2013-01-31 21:56:00,
2013-01-31 17:01:00,40.5,25.6,28.97,SSW,207,2.7,3.1,55,0.00,,SKC,0.00,VWS V14.00,2013-01-31 22:01:00,
2013-01-31 17:06:00,40.3,25.4,28.97,SW,230,0.0,4.0,55,0.00,,SKC,0.00,VWS V14.00,2013-01-31 22:06:00,
2013-01-31 17:11:00,39.9,25.5,28.97,SW,230,0.0,0.0,56,0.00,,SKC,0.00,VWS V14.00,2013-01-31 22:11:00,
2013-01-31 17:16:00,39.7,25.3,28.97,WSW,240,0.0,4.0,56,0.00,,SKC,0.00,VWS V14.00,2013-01-31 22:16:00,
2013-01-31 17:21:00,39.7,25.3,28.97,SW,235,0.0,2.7,56,0.00,,SKC,0.00,VWS V14.00,2013-01-31 22:21:00,
2013-01-31 17:26:00,39.4,25.0,28.97,SW,235,0.0,5.4,56,0.00,,SKC,0.00,VWS V14.00,2013-01-31 22:26:00,
2013-01-31 17:31:00,39.2,24.8,28.97,SSW,211,4.8,4.8,56,0.00,,SKC,0.00,VWS V14.00,2013-01-31 22:31:00,
2013-01-31 17:36:00,39.0,24.7,28.97,WSW,250,0.0,6.3,56,0.00,,SKC,0.00,VWS V14.00,2013-01-31 22:36:00,
2013-01-31 17:41:00,38.8,24.9,28.97,West,259,0.0,0.0,57,0.00,,SKC,0.00,VWS V14.00,2013-01-31 22:41:00,
2013-01-31 17:46:00,38.7,24.3,28.97,SW,222,0.0,4.0,56,0.00,,SKC,0.00,VWS V14.00,2013-01-31 22:46:00,
2013-01-31 17:51:00,38.5,24.2,28.97,SSW,198,0.0,0.0,56,0.00,,SKC,0.00,VWS V14.00,2013-01-31 22:51:00,
2013-01-31 17:56:00,38.3,24.0,28.97,WSW,243,0.0,4.0,56,0.00,,SKC,0.00,VWS V14.00,2013-01-31 22:56:00,
2013-01-31 18:01:00,38.1,23.8,28.97,SW,231,0.0,0.0,56,0.00,,SKC,0.00,VWS V14.00,2013-01-31 23:01:00,
2013-01-31 18:06:00,37.9,23.7,28.97,SSW,202,0.0,0.0,56,0.00,,SKC,0.00,VWS V14.00,2013-01-31 23:06:00,
2013-01-31 18:11:00,37.8,23.5,28.97,SE,145,0.0,0.0,56,0.00,,SKC,0.00,VWS V14.00,2013-01-31 23:11:00,
2013-01-31 18:16:00,37.6,23.7,28.97,SE,145,0.0,0.0,57,0.00,,SKC,0.00,VWS V14.00,2013-01-31 23:16:00,
2013-01-31 18:21:00,37.6,23.7,28.97,West,262,0.0,0.0,57,0.00,,SKC,0.00,VWS V14.00,2013-01-31 23:21:00,
2013-01-31 18:26:00,37.4,23.6,28.97,SW,236,0.0,3.1,57,0.00,,SKC,0.00,VWS V14.00,2013-01-31 23:26:00,
2013-01-31 18:31:00,37.2,23.4,28.97,SW,221,0.0,0.0,57,0.00,,SKC,0.00,VWS V14.00,2013-01-31 23:31:00,
2013-01-31 18:36:00,37.0,23.2,28.97,SW,231,0.0,0.0,57,0.00,,SKC,0.00,VWS V14.00,2013-01-31 23:36:00,
2013-01-31 18:41:00,37.0,23.2,28.97,WSW,240,2.7,8.1,57,0.00,,SKC,0.00,VWS V14.00,2013-01-31 23:41:00,
2013-01-31 18:46:00,36.9,23.1,28.97,WSW,240,0.0,8.1,57,0.00,,SKC,0.00,VWS V14.00,2013-01-31 23:46:00,
2013-01-31 18:51:00,36.9,23.1,28.97,SW,233,0.0,0.0,57,0.00,,SKC,0.00,VWS V14.00,2013-01-31 23:51:00,
2013-01-31 18:56:00,36.7,22.9,28.97,SW,221,0.0,0.0,57,0.00,,SKC,0.00,VWS V14.00,2013-01-31 23:56:00,
2013-01-31 19:01:00,36.7,23.3,28.97,SW,215,0.0,0.0,58,0.00,,SKC,0.00,VWS V14.00,2013-02-01 00:01:00,
2013-01-31 19:06:00,36.5,23.1,28.97,SW,227,0.0,0.0,58,0.00,,SKC,0.00,VWS V14.00,2013-02-01 00:06:00,
2013-01-31 19:11:00,36.5,23.1,28.97,SW,227,0.0,0.0,58,0.00,,SKC,0.00,VWS V14.00,2013-02-01 00:11:00,
2013-01-31 19:16:00,36.3,23.0,28.97,SW,227,0.0,0.0,58,0.00,,SKC,0.00,VWS V14.00,2013-02-01 00:16:00,
2013-01-31 19:21:00,36.3,23.0,28.97,SW,218,0.0,0.0,58,0.00,,SKC,0.00,VWS V14.00,2013-02-01 00:21:00,
2013-01-31 19:26:00,36.1,22.8,28.97,SW,226,0.0,0.0,58,0.00,,SKC,0.00,VWS V14.00,2013-02-01 00:26:00,
2013-01-31 19:31:00,36.1,22.8,28.97,SW,224,0.0,0.0,58,0.00,,SKC,0.00,VWS V14.00,2013-02-01 00:31:00,
2013-01-31 19:36:00,36.0,22.6,28.97,SSW,213,0.0,0.0,58,0.00,,SKC,0.00,VWS V14.00,2013-02-01 00:36:00,
2013-01-31 19:41:00,35.8,22.9,28.97,SW,229,0.0,0.0,59,0.00,,SKC,0.00,VWS V14.00,2013-02-01 00:41:00,
2013-01-31 19:46:00,35.8,22.9,28.97,SW,228,0.0,0.0,59,0.00,,SKC,0.00,VWS V14.00,2013-02-01 00:46:00,
2013-01-31 19:51:00,35.8,22.9,28.97,WSW,247,0.0,0.0,59,0.00,,SKC,0.00,VWS V14.00,2013-02-01 00:51:00,
2013-01-31 19:56:00,35.6,22.7,28.97,SW,222,0.0,3.6,59,0.00,,SKC,0.00,VWS V14.00,2013-02-01 00:56:00,
2013-01-31 20:01:00,35.6,22.7,29.00,SW,231,0.0,3.6,59,0.00,,SKC,0.00,VWS V14.00,2013-02-01 01:01:00,
2013-01-31 20:06:00,35.6,22.7,29.00,South,180,0.0,7.6,59,0.00,,SKC,0.00,VWS V14.00,2013-02-01 01:06:00,
2013-01-31 20:11:00,35.6,22.7,29.00,SW,236,2.7,3.1,59,0.00,,SKC,0.00,VWS V14.00,2013-02-01 01:11:00,
2013-01-31 20:16:00,35.6,22.7,29.00,SW,236,0.0,4.0,59,0.00,,SKC,0.00,VWS V14.00,2013-02-01 01:16:00,
2013-01-31 20:21:00,35.6,22.7,29.00,WSW,237,0.0,0.0,59,0.00,,SKC,0.00,VWS V14.00,2013-02-01 01:21:00,
2013-01-31 20:26:00,35.6,22.7,29.00,SSW,212,2.7,2.7,59,0.00,,SKC,0.00,VWS V14.00,2013-02-01 01:26:00,
2013-01-31 20:31:00,35.6,22.7,29.00,SW,216,4.8,4.8,59,0.00,,SKC,0.00,VWS V14.00,2013-02-01 01:31:00,
2013-01-31 20:36:00,35.6,23.1,29.00,South,189,5.4,5.4,60,0.00,,SKC,0.00,VWS V14.00,2013-02-01 01:36:00,
2013-01-31 20:41:00,35.6,23.1,29.00,SW,233,0.0,0.0,60,0.00,,SKC,0.00,VWS V14.00,2013-02-01 01:41:00,
2013-01-31 20:46:00,35.6,23.1,29.00,WSW,251,4.3,5.8,60,0.00,,SKC,0.00,VWS V14.00,2013-02-01 01:46:00,
2013-01-31 20:51:00,35.8,23.3,29.00,SSE,153,3.8,3.8,60,0.00,,SKC,0.00,VWS V14.00,2013-02-01 01:51:00,
2013-01-31 20:56:00,35.8,23.3,29.00,SW,216,4.8,5.4,60,0.00,,SKC,0.00,VWS V14.00,2013-02-01 01:56:00,
2013-01-31 21:01:00,36.0,23.4,28.97,SW,222,3.8,3.8,60,0.00,,SKC,0.00,VWS V14.00,2013-02-01 02:01:00,
2013-01-31 21:06:00,36.0,23.4,28.97,SW,214,7.0,7.0,60,0.00,,SKC,0.00,VWS V14.00,2013-02-01 02:06:00,
2013-01-31 21:11:00,36.0,23.4,28.97,SW,236,3.8,3.8,60,0.00,,SKC,0.00,VWS V14.00,2013-02-01 02:11:00,
2013-01-31 21:16:00,36.1,23.6,28.97,SSW,199,4.8,4.8,60,0.00,,SKC,0.00,VWS V14.00,2013-02-01 02:16:00,
2013-01-31 21:21:00,36.1,23.2,28.97,WSW,248,4.3,8.1,59,0.00,,SKC,0.00,VWS V14.00,2013-02-01 02:21:00,
2013-01-31 21:26:00,36.1,23.2,28.97,SW,220,3.2,8.1,59,0.00,,SKC,0.00,VWS V14.00,2013-02-01 02:26:00,
2013-01-31 21:31:00,36.1,23.2,28.97,SSW,205,3.8,3.8,59,0.00,,SKC,0.00,VWS V14.00,2013-02-01 02:31:00,
2013-01-31 21:36:00,36.1,23.2,28.97,SSE,165,4.8,6.3,59,0.00,,SKC,0.00,VWS V14.00,2013-02-01 02:36:00,
2013-01-31 21:41:00,36.1,23.2,28.97,South,184,4.3,5.8,59,0.00,,SKC,0.00,VWS V14.00,2013-02-01 02:41:00,
2013-01-31 21:46:00,36.1,23.2,28.97,SSW,204,4.8,5.8,59,0.00,,SKC,0.00,VWS V14.00,2013-02-01 02:46:00,
2013-01-31 21:51:00,36.1,23.2,28.97,SW,215,3.2,5.4,59,0.00,,SKC,0.00,VWS V14.00,2013-02-01 02:51:00,
2013-01-31 21:56:00,36.1,23.2,28.97,SW,220,3.8,5.8,59,0.00,,SKC,0.00,VWS V14.00,2013-02-01 02:56:00,
2013-01-31 22:01:00,36.3,23.4,28.97,SSW,204,5.9,5.9,59,0.00,,SKC,0.00,VWS V14.00,2013-02-01 03:01:00,
2013-01-31 22:06:00,36.3,23.0,28.97,SW,220,0.0,5.8,58,0.00,,SKC,0.00,VWS V14.00,2013-02-01 03:06:00,
2013-01-31 22:11:00,36.3,23.4,28.97,SSW,205,3.2,3.2,59,0.00,,SKC,0.00,VWS V14.00,2013-02-01 03:11:00,
2013-01-31 22:16:00,36.1,23.2,28.97,SSW,205,4.3,6.3,59,0.00,,SKC,0.00,VWS V14.00,2013-02-01 03:16:00,
2013-01-31 22:21:00,36.1,23.2,28.97,South,190,0.0,5.8,59,0.00,,SKC,0.00,VWS V14.00,2013-02-01 03:21:00,
2013-01-31 22:26:00,36.1,23.2,28.97,SW,222,4.3,6.3,59,0.00,,SKC,0.00,VWS V14.00,2013-02-01 03:26:00,
2013-01-31 22:31:00,36.3,23.4,28.94,West,261,4.8,5.4,59,0.00,,SKC,0.00,VWS V14.00,2013-02-01 03:31:00,
2013-01-31 22:37:00,36.3,23.4,28.94,SW,236,3.8,8.1,59,0.00,,SKC,0.00,VWS V14.00,2013-02-01 03:37:00,
2013-01-31 22:42:00,36.3,23.0,28.94,SW,234,4.8,9.6,58,0.00,,SKC,0.00,VWS V14.00,2013-02-01 03:42:00,
2013-01-31 22:47:00,36.5,23.1,28.94,WSW,238,3.2,9.6,58,0.00,,SKC,0.00,VWS V14.00,2013-02-01 03:47:00,
2013-01-31 22:52:00,36.5,23.1,28.94,SW,214,7.5,7.5,58,0.00,,SKC,0.00,VWS V14.00,2013-02-01 03:52:00,
2013-01-31 22:57:00,36.3,23.0,28.94,SSW,192,4.8,6.3,58,0.00,,SKC,0.00,VWS V14.00,2013-02-01 03:57:00,
2013-01-31 23:02:00,36.5,23.1,28.94,SSW,206,0.0,3.6,58,0.00,,SKC,0.00,VWS V14.00,2013-02-01 04:02:00,
2013-01-31 23:07:00,36.5,23.1,28.94,SW,225,4.8,8.1,58,0.00,,SKC,0.00,VWS V14.00,2013-02-01 04:07:00,
2013-01-31 23:12:00,36.5,23.1,28.94,SSW,196,4.3,8.7,58,0.00,,SKC,0.00,VWS V14.00,2013-02-01 04:12:00,
2013-01-31 23:17:00,36.7,23.3,28.94,WSW,247,3.8,8.7,58,0.00,,SKC,0.00,VWS V14.00,2013-02-01 04:17:00,
2013-01-31 23:22:00,36.7,23.3,28.94,SSE,163,4.8,4.8,58,0.00,,SKC,0.00,VWS V14.00,2013-02-01 04:22:00,
2013-01-31 23:27:00,36.9,23.5,28.94,South,187,3.2,10.1,58,0.00,,SKC,0.00,VWS V14.00,2013-02-01 04:27:00,
2013-01-31 23:32:00,37.0,23.6,28.94,SSE,149,3.2,8.1,58,0.00,,SKC,0.00,VWS V14.00,2013-02-01 04:32:00,
2013-01-31 23:37:00,37.4,24.0,28.94,SSW,209,6.4,8.1,58,0.00,,SKC,0.00,VWS V14.00,2013-02-01 04:37:00,
2013-01-31 23:42:00,37.6,24.2,28.94,SSW,210,3.8,4.9,58,0.00,,SKC,0.00,VWS V14.00,2013-02-01 04:42:00,
2013-01-31 23:47:00,37.6,24.2,28.94,SW,231,6.4,6.7,58,0.00,,SKC,0.00,VWS V14.00,2013-02-01 04:47:00,
2013-01-31 23:52:00,37.9,24.5,28.94,WSW,251,7.0,8.3,58,0.00,,SKC,0.00,VWS V14.00,2013-02-01 04:52:00,
2013-01-31 23:57:00,37.9,24.5,28.94,WSW,245,7.5,8.3,58,0.00,,SKC,0.00,VWS V14.00,2013-02-01 04:57:00,